K9JM Weather Reports


Display with metric or nautical units.
time (UTC)temp
F
wind
direction
speed
MPH
gust
MPH
rain 1hr
in
rain 24hr
in
rain mn
in
humidity
%
barometer
mb
20260902084516 54 113 1.0 3.0 0.00 0.00 0.00 81 1017.0
20260902083016 54 0.0 3.0 0.00 0.00 0.00 81 1016.8
20260902081515 54 135 1.0 3.0 0.00 0.00 0.00 80 1016.7
20260902080016 55 113 1.0 3.0 0.00 0.00 0.00 80 1016.6
20260902074515 55 113 2.0 5.0 0.00 0.00 0.00 80 1016.4
20260902073035 55 113 2.0 5.0 0.00 0.00 0.00 79 1016.6
20260902071516 55 113 3.0 5.0 0.00 0.00 0.00 78 1016.4
20260902070016 55 113 2.0 5.0 0.00 0.00 0.00 78 1016.6
20260902064557 55 113 2.0 6.0 0.00 0.00 0.00 77 1016.7
20260902063017 55 113 2.0 6.0 0.00 0.00 0.00 77 1016.7
20260902061517 56 113 1.0 5.0 0.00 0.00 0.00 76 1016.7
20260902060017 56 158 1.0 5.0 0.00 0.00 0.00 75 1016.7
20260902054517 56 113 1.0 6.0 0.00 0.00 0.00 74 1016.4
20260902053017 57 113 1.0 4.0 0.00 0.00 0.00 72 1016.5
20260902051517 57 113 1.0 3.0 0.00 0.00 0.00 70 1016.5
20260902050017 58 0.0 4.0 0.00 0.00 0.00 70 1016.6
20260902044517 58 0.0 2.0 0.00 0.00 0.00 68 1016.6
20260902043017 59 0.0 2.0 0.00 0.00 0.00 67 1016.5
20260902041516 59 0.0 0.0 0.00 0.00 0.00 66 1016.1
20260902040016 59 0.0 0.0 0.00 0.00 0.00 65 1015.9
20260902034517 60 0.0 0.0 0.00 0.00 0.00 64 1015.7
20260902033017 61 0.0 0.0 0.00 0.00 0.00 62 1015.5
20260902031516 61 0.0 0.0 0.00 0.00 0.00 60 1015.0
20260902030016 62 0.0 0.0 0.00 0.00 0.00 58 1014.9
20260902024517 63 0.0 0.0 0.00 0.00 0.00 56 1014.5
20260902023017 63 0.0 0.0 0.00 0.00 0.00 54 1014.4
20260902021516 64 0.0 2.0 0.00 0.00 0.00 52 1014.3
20260902020016 64 0.0 1.0 0.00 0.00 0.00 52 1014.2
20260902014517 65 0.0 1.0 0.00 0.00 0.00 52 1014.3
20260902013017 65 0.0 3.0 0.00 0.00 0.00 52 1014.4
20260902011516 66 0.0 3.0 0.00 0.00 0.00 51 1014.4
20260902010037 66 0.0 3.0 0.00 0.00 0.00 52 1014.4
20260902004516 67 158 1.0 4.0 0.00 0.00 0.00 49 1014.6
20260902003017 67 113 1.0 7.0 0.00 0.00 0.00 47 1014.5
20260902001536 67 113 2.0 7.0 0.00 0.00 0.00 49 1014.6
20260902000037 68 270 1.0 5.0 0.00 0.00 0.00 48 1014.5
20260901234516 68 135 1.0 5.0 0.00 0.00 0.00 49 1014.5
20260901233016 68 203 1.0 6.0 0.00 0.00 0.00 50 1014.6
20260901231516 68 203 1.0 4.0 0.00 0.00 0.00 50 1014.8
20260901230017 68 113 1.0 6.0 0.00 0.00 0.00 50 1014.9
20260901224516 68 225 1.0 5.0 0.00 0.00 0.00 50 1015.0
20260901223017 68 113 2.0 9.0 0.00 0.00 0.00 51 1015.1
20260901221516 68 113 1.0 5.0 0.00 0.00 0.00 52 1015.2
20260901220016 68 180 1.0 7.0 0.00 0.00 0.00 52 1015.4
20260901214516 67 113 2.0 8.0 0.00 0.00 0.00 53 1015.4
20260901213016 68 135 1.0 7.0 0.00 0.00 0.00 54 1015.5
20260901211516 68 135 1.0 6.0 0.00 0.00 0.00 55 1015.7
20260901210016 68 180 1.0 6.0 0.00 0.00 0.00 54 1015.7
20260901204516 66 270 1.0 7.0 0.00 0.00 0.00 58 1015.6
20260901203016 66 135 2.0 6.0 0.00 0.00 0.00 58 1015.7
20260901201516 66 113 2.0 10.0 0.00 0.00 0.00 58 1015.8
20260901200016 66 135 2.0 6.0 0.00 0.00 0.00 59 1015.7
20260901194516 66 113 2.0 7.0 0.00 0.00 0.00 58 1015.7
20260901193016 65 135 2.0 7.0 0.00 0.00 0.00 59 1015.7
20260901191556 65 113 2.0 7.0 0.00 0.00 0.00 60 1016.1
20260901190016 65 113 2.0 7.0 0.00 0.00 0.00 59 1016.0
20260901184516 63 180 1.0 6.0 0.00 0.00 0.00 62 1015.9
20260901183016 63 90 2.0 6.0 0.00 0.00 0.00 64 1015.9
20260901181516 64 113 2.0 5.0 0.00 0.00 0.00 61 1015.7
20260901180016 63 113 3.0 6.0 0.00 0.00 0.00 64 1015.6
20260901174516 61 113 3.0 7.0 0.00 0.00 0.00 69 1015.5
20260901173016 60 113 2.0 6.0 0.00 0.00 0.00 69 1015.5
20260901171516 60 135 2.0 7.0 0.00 0.00 0.00 70 1015.4
20260901170016 59 113 3.0 10.0 0.00 0.00 0.00 71 1015.2
20260901164516 61 113 3.0 6.0 0.00 0.00 0.00 68 1015.2
20260901163016 60 113 3.0 6.0 0.00 0.00 0.00 71 1014.8
20260901161516 58 113 2.0 7.0 0.00 0.00 0.00 75 1014.7
20260901160036 58 113 3.0 6.0 0.00 0.00 0.00 76 1014.5
20260901154536 57 113 3.0 6.0 0.00 0.00 0.00 79 1014.4
20260901153036 56 113 2.0 9.0 0.00 0.00 0.00 82 1014.1
20260901151516 55 113 2.0 4.0 0.00 0.00 0.00 84 1014.1
20260901150016 55 113 3.0 6.0 0.00 0.00 0.00 85 1013.7
20260901144516 54 113 3.0 6.0 0.00 0.00 0.00 88 1013.7
20260901143016 52 90 3.0 5.0 0.00 0.00 0.00 91 1013.4
20260901141516 51 90 3.0 6.0 0.00 0.00 0.00 91 1013.1
20260901140036 51 90 2.0 7.0 0.00 0.00 0.00 92 1013.0
20260901134516 51 90 3.0 10.0 0.00 0.00 0.00 92 1013.0
20260901133016 51 90 4.0 10.0 0.00 0.00 0.00 92 1012.9
20260901131516 51 90 3.0 13.0 0.00 0.00 0.00 92 1013.1
20260901130016 51 90 3.0 7.0 0.00 0.00 0.00 92 1013.1
20260901124516 51 113 2.0 9.0 0.00 0.00 0.00 92 1013.2
20260901123015 51 113 2.0 9.0 0.00 0.00 0.00 91 1013.2
20260901121556 51 113 2.0 4.0 0.00 0.00 0.00 91 1012.8
20260901120016 51 158 1.0 5.0 0.00 0.00 0.00 90 1012.6
20260901114536 51 158 2.0 5.0 0.00 0.00 0.00 89 1012.6
20260901113016 51 180 1.0 5.0 0.00 0.00 0.00 88 1012.3
20260901111515 52 0.0 2.0 0.00 0.00 0.00 87 1012.2
20260901110016 53 0.0 3.0 0.00 0.00 0.00 86 1012.1
20260901104535 53 90 1.0 3.0 0.00 0.00 0.00 86 1012.3
20260901103035 54 68 3.0 7.0 0.00 0.00 0.00 86 1011.8
20260901101516 53 90 3.0 4.0 0.00 0.00 0.00 86 1012.0
20260901100036 53 90 2.0 5.0 0.00 0.00 0.00 85 1012.2
20260901094516 54 0.0 2.0 0.00 0.00 0.00 85 1012.3
20260901093015 54 113 1.0 2.0 0.00 0.00 0.00 84 1012.4
20260901091516 54 113 1.0 3.0 0.00 0.00 0.00 84 1012.5
20260901090016 54 113 1.0 3.0 0.00 0.00 0.00 83 1012.4